RH
24 26 25 19 19 16 11 14 14 10 9 15 16 15 14 13 10 18 26 30 40 48 57 61 68 73 75 82 80 82 78 68 62 67 64 59 70 86 70 73 70 67 63 58
21 30 19 15 14 15 16 18 18 13 9 10 14 17 15 12 11 18 24 38 42 49 53 61 67 76 82 87 88 87 86 81 65 63 80 86 78 83 79 82 70 64 59 52
22 19 17 17 14 17 18 20 18 15 12 14 18 20 17 13 14 31 34 35 44 47 50 59 69 82 85 90 92 89 86 83 71 65 67 64 77 78 85 88 88 90 71 62
18 14 16 17 17 15 24 15 14 15 19 24 14 28 16 22 26 34 38 42 46 50 56 63 73 82 83 89 93 94 93 93 87 79 72 73 83 83 84 91 85 99 98 89
20 15 17 20 17 14 19 15 18 18 24 23 20 22 18 14 34 36 36 41 47 54 61 70 80 81 84 90 93 93 86 91 97 93 76 73 76 78 81 76 73 72 84 87
18 12 14 16 15 15 13 24 24 23 24 42 25 24 21 16 21 32 31 38 50 64 70 77 82 81 83 87 89 85 86 90 90 99 99 78 73 79 92 77 81 75 79 75
21 19 17 18 22 17 20 33 44 42 41 42 21 23 23 19 22 25 32 42 53 65 72 74 75 74 80 82 72 81 86 90 84 87 89 84 87 92 98 88 87 92 86 94
32 33 22 20 23 26 28 32 35 39 41 30 17 31 23 22 24 27 32 41 57 68 76 74 75 74 74 79 61 66 89 94 79 88 95 89 92 99 100 100 99 100 100 100
28 26 17 19 20 21 28 35 24 34 34 44 29 21 27 32 37 35 37 49 64 76 82 83 82 79 74 82 62 58 76 89 85 88 95 98 100 97 99 100 99 100 100 100
23 34 19 18 20 21 22 23 46 48 52 51 30 26 33 48 54 44 47 55 67 77 81 83 77 75 77 82 68 63 70 82 89 88 94 96 97 100 97 97 100 100 100 100
24 34 29 26 32 29 27 30 31 36 42 42 42 46 38 52 47 48 48 52 70 77 81 79 73 74 81 86 82 68 86 87 89 90 94 99 100 100 99 96 96 95 96 96
27 32 37 29 24 20 19 25 29 61 54 55 56 52 39 45 38 37 38 45 67 75 76 73 71 68 78 85 92 82 93 95 99 95 100 100 100 100 100 94 94 94 95 92
33 52 52 34 31 25 28 24 26 36 44 57 63 49 24 23 28 30 32 39 67 76 72 69 63 66 74 85 93 95 97 100 98 98 98 96 92 82 85 91 94 87 83 89
45 42 46 47 32 34 44 34 38 44 68 62 53 48 35 33 40 48 45 45 65 74 70 67 62 65 74 86 93 98 100 98 97 98 98 98 91 86 87 90 87 81 83 71
52 58 40 33 27 28 46 55 62 70 74 86 62 50 38 36 49 53 48 43 62 69 67 64 61 67 79 85 91 94 99 97 97 100 98 90 87 84 78 82 86 83 60 65
45 58 48 52 39 41 52 80 62 56 54 55 54 44 34 30 26 51 52 45 60 64 65 63 61 70 81 86 90 94 90 90 88 88 92 89 69 62 48 68 76 67 54 35
56 62 58 65 44 54 69 62 50 41 29 27 34 28 21 22 23 23 43 46 58 62 65 63 64 72 79 85 90 93 88 83 82 85 82 54 40 29 25 31 39 38 33 26
80 91 81 78 63 90 49 32 31 32 27 24 23 22 20 23 25 36 38 53 64 62 64 66 68 78 91 96 96 91 83 82 84 74 63 51 39 46 36 24 39 53 38 30
47 60 84 96 93 60 40 26 34 48 43 33 35 32 24 24 24 67 54 62 62 65 69 69 75 82 91 96 95 90 87 84 83 51 24 17 16 21 24 26 41 55 64 79
46 53 80 97 94 90 50 27 21 33 73 38 34 36 32 29 58 76 76 69 71 72 70 76 82 88 92 95 96 90 84 83 90 48 31 23 19 21 24 40 40 61 79 95
62 60 76 73 73 59 36 25 23 53 56 40 41 53 49 71 89 89 82 80 78 79 80 83 87 92 96 96 97 94 88 68 50 60 70 48 33 50 59 56 66 78 97 94
74 89 69 64 73 81 39 38 46 59 42 47 49 58 90 98 98 92 92 97 96 93 94 92 92 96 96 100 100 91 65 76 61 24 19 29 50 66 74 92 95 93 95 93
58 57 68 79 67 62 46 45 32 44 51 53 55 74 79 99 100 100 100 100 100 97 97 98 96 96 99 100 99 71 54 48 36 20 18 28 50 77 76 81 93 96 92 95
40 32 49 52 42 36 33 39 44 58 56 55 62 89 88 97 100 100 100 100 100 97 94 93 95 97 95 90 88 84 71 43 37 50 73 91 92 88 89 81 39 36 60 76
75 57 57 63 61 52 36 41 44 52 55 61 67 91 91 94 100 99 100 100 96 94 92 93 96 84 75 71 75 83 84 79 79 80 77 68 71 41 29 32 22 19 17 19
47 64 66 67 46 60 67 66 70 55 64 65 76 99 100 100 99 100 100 97 96 95 93 97 95 81 72 68 69 67 61 64 67 70 72 70 68 71 69 67 70 76 72 70
Wind_Speed
16 11 16 21 20 20 18 12 12 10 10 15 14 13 15 20 21 12 9 11 8 6 5 2 4 6 7 10 11 12 14 15 14 16 15 11 9 13 11 10 12 13 15 14
16 19 20 20 21 21 21 17 15 15 14 14 9 13 16 18 17 13 11 12 8 8 8 5 3 4 7 7 9 11 12 13 12 10 11 11 14 8 13 17 14 13 14 15
21 13 21 21 21 13 15 15 15 17 15 6 8 17 20 20 16 13 7 8 10 7 5 5 4 3 6 8 9 9 10 11 12 11 10 9 4 4 6 11 13 14 15 14
24 23 12 12 19 14 18 17 17 17 12 12 13 12 12 10 14 13 16 14 12 10 6 6 3 3 5 6 8 9 11 12 13 11 9 9 6 8 8 9 10 8 14 16
18 18 19 20 20 17 16 9 7 7 11 14 16 12 14 18 16 18 20 18 14 11 8 7 4 4 5 6 7 8 10 11 13 13 14 10 10 11 11 13 12 12 13 15
21 19 16 18 19 18 13 5 6 8 10 12 15 14 11 12 15 21 23 22 17 13 10 7 6 6 5 5 5 7 9 8 11 10 10 12 11 11 12 14 14 16 16 18
21 23 14 11 14 14 12 8 5 8 8 10 13 14 13 3 13 17 20 24 21 16 12 9 8 5 4 3 5 7 7 7 9 11 11 11 11 11 11 14 13 14 15 16
18 19 23 17 20 15 18 18 7 9 9 13 8 7 5 8 17 21 26 25 23 19 14 11 8 6 5 0 2 4 6 6 9 10 10 12 11 10 10 11 12 12 13 13
14 24 15 23 19 19 18 20 14 14 12 7 8 9 8 10 11 13 18 24 23 19 16 14 9 7 6 3 1 2 4 4 7 8 9 10 12 12 11 12 10 11 12 12
14 15 22 24 18 24 18 15 12 6 6 10 12 14 9 16 12 12 12 20 22 19 18 15 12 9 6 4 1 2 4 4 6 7 7 9 11 11 11 12 12 12 13 14
19 12 8 16 15 19 12 15 9 9 9 3 7 4 3 10 13 13 14 20 23 22 20 17 13 10 8 5 1 1 3 4 5 6 7 8 10 10 11 12 12 13 14 15
21 7 10 22 15 16 16 18 15 7 10 7 9 14 13 13 13 16 16 21 22 19 18 17 15 13 9 7 4 0 3 4 5 8 8 9 9 9 10 12 13 14 15 16
15 7 9 14 16 18 18 16 15 16 10 15 13 15 8 3 10 16 16 22 27 23 21 18 17 15 10 8 7 4 4 6 5 6 4 4 4 6 6 8 8 9 9 11
5 5 11 10 11 3 6 14 13 11 13 18 18 18 17 9 3 10 11 4 22 23 23 21 18 15 12 9 7 6 6 7 5 5 4 3 4 5 6 6 7 8 8 9
4 5 9 13 14 11 6 9 12 15 15 14 19 17 18 15 11 16 21 24 26 23 23 21 19 17 14 11 10 8 6 6 5 5 4 5 3 3 4 5 6 6 6 8
3 3 8 14 14 14 11 11 22 21 20 16 21 19 14 19 17 23 26 23 26 25 22 23 20 18 14 12 11 10 9 8 9 7 6 4 3 3 4 5 5 5 7 8
6 6 7 16 16 15 15 26 23 25 22 16 19 16 15 16 17 20 23 17 27 26 26 25 22 19 16 14 13 12 11 9 8 7 5 3 2 2 3 4 5 7 10 11
4 3 4 9 12 20 16 16 20 21 19 19 18 18 17 14 17 9 13 30 32 29 29 28 27 24 19 17 15 12 12 10 9 9 7 5 4 3 4 5 7 9 11 12
15 12 6 5 6 9 13 13 9 8 7 15 13 14 14 17 12 6 6 29 31 31 32 34 32 25 22 20 17 14 13 12 10 8 6 5 4 3 5 7 8 9 10 12
20 16 10 4 3 4 9 13 16 9 6 13 16 14 14 18 7 3 14 26 32 33 37 34 27 23 22 22 18 16 14 14 11 7 6 6 6 6 6 8 10 10 12 12
9 11 16 13 10 8 16 18 23 14 9 9 7 10 13 3 6 20 20 25 30 33 32 27 24 23 22 21 23 20 19 13 12 12 10 7 8 7 8 10 11 13 12 12
6 4 7 9 10 15 6 10 13 6 3 3 2 4 15 18 18 20 19 25 28 29 28 25 25 23 23 23 22 20 15 15 12 10 9 9 9 8 10 10 12 12 10 10
13 9 5 5 3 2 7 8 14 12 4 1 0 5 12 14 18 20 21 25 25 26 25 24 24 25 21 18 17 19 17 15 12 10 10 11 11 10 8 9 9 10 8 8
16 18 12 12 13 13 16 17 9 5 4 3 3 9 12 17 21 23 25 26 25 23 24 23 22 21 21 18 16 14 16 14 12 11 11 11 12 13 9 4 6 7 7 7
8 9 6 7 10 22 18 9 11 12 6 6 8 14 13 16 22 25 26 26 26 25 24 23 23 23 22 19 17 16 15 14 13 12 9 8 6 7 7 6 10 11 12 13
6 11 9 10 8 7 8 9 15 10 9 10 13 13 12 17 23 23 24 26 27 26 25 23 22 24 22 20 19 18 17 16 15 13 11 10 10 3 4 4 6 9 12 13
Wind_Direction
206 213 225 229 224 239 263 291 283 265 173 187 213 245 270 271 260 157 192 190 153 152 152 114 67 49 52 37 36 24 13 6 8 9 9 14 4 350 339 316 312 309 305 303
231 228 230 235 239 227 242 255 259 265 271 270 282 270 267 264 254 174 191 152 173 174 173 144 91 56 37 33 40 23 11 6 6 21 11 16 11 1 4 355 343 326 322 317
221 232 224 244 242 230 242 249 253 261 269 232 249 262 262 255 230 138 164 151 158 183 175 153 126 54 24 21 14 19 2 5 345 356 345 356 19 34 354 359 338 349 340 338
224 230 245 237 240 229 243 242 253 251 269 262 264 277 277 136 163 164 170 168 178 179 169 146 115 76 60 49 31 36 32 3 5 355 352 354 2 342 332 298 300 330 327 321
224 219 232 231 241 233 249 294 260 245 248 268 255 266 250 241 181 184 179 178 172 170 160 151 144 114 88 71 56 46 46 10 9 8 11 358 339 327 325 312 316 304 291 293
238 244 231 248 223 250 255 174 242 249 257 252 248 246 263 250 207 175 182 171 165 160 162 160 152 126 92 58 49 46 49 9 351 4 359 352 350 342 345 335 331 323 316 312
240 232 232 241 231 220 195 189 213 223 217 244 240 237 232 136 132 173 149 150 161 165 166 166 154 139 105 59 40 56 39 10 353 2 4 357 356 350 346 336 337 339 339 339
221 229 218 211 225 201 214 200 201 220 228 252 256 230 250 91 96 120 144 153 153 160 167 166 159 145 116 128 9 57 52 7 356 6 6 358 5 6 346 353 345 353 349 353
210 233 217 208 206 215 203 218 240 270 284 284 262 262 152 125 124 133 141 144 154 163 170 170 168 157 141 169 318 39 64 14 8 13 14 7 10 9 8 358 12 4 2 2
245 268 221 192 197 226 248 204 215 231 235 233 248 253 272 165 162 161 164 155 161 172 175 176 172 163 162 168 288 21 33 32 20 20 26 17 25 21 20 15 22 24 24 26
230 253 192 164 202 200 212 234 206 208 234 265 278 276 70 151 171 182 179 178 171 179 181 177 175 171 164 160 219 60 69 53 45 32 34 34 29 32 18 25 30 30 29 31
214 238 223 210 190 228 214 214 218 220 233 239 255 260 138 161 182 188 197 191 179 186 185 183 181 174 164 159 155 244 83 68 59 45 51 46 41 44 22 20 22 33 24 26
188 220 219 222 199 211 215 238 224 220 244 238 242 254 231 218 182 185 205 186 167 179 185 189 181 176 170 169 157 160 135 104 84 77 65 55 43 39 33 31 26 28 31 44
346 193 223 225 227 194 213 235 269 266 224 248 243 267 264 231 182 348 359 84 171 182 187 188 186 179 174 168 167 166 143 133 127 121 118 81 64 48 45 38 31 32 32 38
12 250 237 249 269 273 242 251 266 266 275 241 265 264 264 282 181 206 212 227 176 182 188 187 188 178 172 168 164 162 152 131 134 118 112 95 66 72 63 55 45 31 29 47
347 273 307 281 279 270 249 247 257 252 248 254 269 266 266 256 266 216 220 179 173 185 188 186 191 180 169 172 171 161 153 146 148 138 127 129 129 86 73 62 46 39 31 37
283 277 266 262 264 279 267 248 248 246 245 253 262 267 269 264 260 261 160 193 183 184 181 184 182 175 169 171 172 163 157 142 134 126 123 139 118 71 63 58 45 44 45 48
265 299 274 260 261 244 252 253 245 257 267 266 265 263 266 295 312 88 183 178 188 183 176 176 176 167 169 170 167 159 152 153 153 154 148 139 117 93 51 61 63 55 55 52
233 247 251 268 236 293 288 263 257 257 277 291 318 308 293 303 298 78 63 179 173 171 174 172 177 182 178 169 159 161 156 154 164 160 146 136 124 101 77 72 76 69 65 53
225 230 218 248 236 243 250 258 278 337 256 264 251 262 267 275 253 102 120 142 157 169 175 175 179 180 180 179 156 166 156 160 157 141 127 121 110 96 86 79 76 73 64 63
203 220 227 237 249 257 265 277 278 275 263 12 347 341 336 68 82 131 154 151 165 169 172 176 179 179 179 171 170 169 183 177 165 157 150 127 102 95 85 78 74 69 68 59
203 220 222 232 240 254 347 318 264 344 336 22 38 42 99 127 140 149 153 158 164 165 168 175 173 172 176 176 181 185 172 156 167 157 145 134 118 99 91 84 72 73 64 63
252 234 223 205 247 211 277 242 288 283 294 216 259 147 158 160 159 161 161 165 166 167 169 173 172 171 174 173 180 180 175 173 163 149 135 124 118 104 89 104 111 98 85 83
269 268 251 254 258 265 263 240 231 216 249 245 202 171 183 171 172 166 167 170 171 170 166 163 158 159 164 168 166 178 162 158 149 136 121 115 121 125 113 64 89 97 101 98
266 294 278 301 292 283 264 267 247 206 196 199 181 184 193 178 175 176 174 174 174 169 160 154 161 164 163 162 167 158 152 154 156 154 150 130 121 117 120 106 76 64 65 61
270 258 269 264 279 284 313 268 305 227 179 183 167 152 163 177 175 176 175 177 172 165 155 162 165 163 161 161 157 157 163 168 163 156 146 141 138 106 46 71 55 49 48 41